Location: Ernez
(36.4595°N, 29.8755°E)
Time: 09:22:57
(UTC+00:00)

NOSS 3-4 (A) - Pass Details

Date: 13 November 2025
Orbit: 771 x 1440 km, 63.4° (Epoch: 11 November)

Event Time Altitude Azimuth Distance (km) Brightness Sun altitude
Rises 15:23:29 0° 328° (NNW) 3,825 6.8 -6.5°
Reaches altitude 10° 15:25:58 10° 328° (NNW) 2,958 6.2 -7.0°
Maximum altitude 15:33:09 89° 52° (NE) 1,239 4.1 -8.4°
Drops below altitude 10° 15:41:31 10° 150° (SSE) 3,409 6.2 -10.0°
Sets 15:44:32 0° 150° (SSE) 4,437 6.8 -10.6°
